sat.trackr.live / text

‹ back to catalog

KINEIS-2D

NORAD 62930 · 2025-028C

PAYLOAD ACTIVE UNKNOWN

§ Identity

Operator
Country
FR
Launch date
2025-02-08
Launch site
RLLB
Launch vehicle
Mass (kg)
RCS (m²)

External: N2YO · Heavens-Above · Gunter

§ Orbital elements

Epoch: 2026-05-25T03:11:42.431136Z

Period
97.59 min
Inclination
97.9298°
Eccentricity
0.0001617
Mean motion
14.75598202 rev/d
Perigee alt
642.1 km
Apogee alt
644.4 km
Semi-major
7,021.4 km
B*
2.0681e-4
RAAN
198.0232°
Arg perigee
281.8813°
Mean anomaly
78.2215°
Rev number
6,931

§ Raw data

KINEIS-2D1 62930U 25028C   26145.13312999  .00001361  00000+0  20681-3 0  99922 62930  97.9298 198.0232 0001617 281.8813  78.2215 14.75598202 69314

JSON: /api/v1/satellites/62930 · /tle

For live sub-satellite position, see the globe view (requires WebGL).

§ Visibility from observer

Set your observer location to see the next 7 days of passes ≥ 10°. The values pass through the URL so the page stays shareable.

No JS? Fill the form by hand. The geolocation button needs JavaScript.